Flag for U.S.A. Weather past 2 weeks in Rancho Cucamonga, California, U.S.A.

Now
90 °F

Passing clouds.


Feels Like: 89 °F
Forecast: 62 / 87 °F
Wind: 15 mph from West

Location: Ontario International Airport

Current Time: Aug 22, 2014 at 3:30:29 PM

Latest Report: Aug 22, 2014 at 2:53 PM


Visibility: 10 mi

Pressure: 29.87 "Hg

Humidity: 34%

Dew point: 58 °F

Location of Rancho CucamongaLocation

Historic Weather in Rancho Cucamonga — Graph

°F

Rancho Cucamonga temperature yesterday

Maximum temperature yesterday: 91 °F (at 2:53 PM)
Minimum temperature yesterday: 65 °F (at 5:53 AM)
Average temperature yesterday: 76 °F

Past Weeks' High & Low Weather Summary

 TemperatureHumidityPressure
High98 °F (Aug 15, 3:53 PM)91% (Aug 10, 2:53 AM)29.97 "Hg (Aug 10, 2:53 AM)
Low63 °F (Aug 8, 3:53 AM)17% (Aug 15, 9:53 PM)29.73 "Hg (Aug 18, 4:53 PM)
Average78 °F54%29.88 "Hg
* Reported Aug 7 1:53 PM — Aug 22 1:53 PM, Rancho Cucamonga, Weather by CustomWeather, © 2014

Note: Actual official high and low records may vary slightly from our data, if they occured in-between our weather recording intervals... More about our weather records

Advertising

Rancho Cucamonga weather history for previous 24 hours

 ConditionsComfort  
Time TempWeatherWind HumidityBarometerVisibility
1:53 PM
Aug 22
88 °FPassing clouds.10 mph38%29.89 "Hg10 mi
12:53 PM87 °FPassing clouds.10 mph39%29.91 "Hg10 mi
11:53 AM84 °FPassing clouds.7 mph43%29.92 "Hg10 mi
10:53 AM81 °FPassing clouds.5 mph51%29.93 "Hg10 mi
9:53 AM78 °FSunny.6 mph56%29.93 "Hg10 mi
8:53 AM74 °FSunny.6 mph67%29.93 "Hg9 mi
7:53 AM72 °FSunny.No wind71%29.92 "Hg8 mi
6:53 AM68 °FClear.No wind82%29.91 "Hg8 mi
5:53 AM68 °FPassing clouds.5 mph78%29.90 "Hg8 mi
4:53 AM68 °FClear.No wind78%29.89 "Hg10 mi
3:53 AM69 °FClear.3 mph76%29.90 "Hg10 mi
2:53 AM71 °FClear.3 mph71%29.90 "Hg10 mi
1:53 AM70 °FClear.No wind73%29.90 "Hg10 mi
12:53 AM71 °FClear.3 mph71%29.91 "Hg10 mi
11:53 PM
Aug 21
72 °FClear.7 mph68%29.91 "Hg10 mi
10:53 PM73 °FPassing clouds.3 mph66%29.91 "Hg10 mi
9:53 PM74 °FPassing clouds.6 mph64%29.93 "Hg10 mi
8:53 PM76 °FPassing clouds.8 mph60%29.91 "Hg10 mi
7:53 PM79 °FPassing clouds.13 mph52%29.88 "Hg10 mi
6:53 PM82 °FPassing clouds.15 mph48%29.84 "Hg10 mi
5:53 PM86 °FPassing clouds.13 mph40%29.84 "Hg10 mi
4:53 PM90 °FPassing clouds.14 mph35%29.82 "Hg10 mi
3:53 PM91 °FPassing clouds.14 mph33%29.82 "Hg10 mi
Weather by CustomWeather, © 2014

See weather overviewHow to use our weather pages